User: anonymous   Login
Location: Unspecified
(0.0000°N, 0.0000°E)
Time: 10:46:14
(UTC+00:00)
Language:

NOAA 17 - Orbit

View from above orbital plane
View from above orbital plane
View from above satellite
View from above satellite

Ground track
Ground track

The orbit data is extracted from the following two-line orbital elements,

1 27453U 02032A   17142.91488363 +.00000000 +00000-0 +18089-4 0  9995
2 27453 098.4321 108.4004 0010500 275.0474 084.9507 14.24985691775159
Epoch (UTC): 22 May 2017 21:57:25
Eccentricity: 0.0010500
inclination: 98.4321°
perigee height: 801 km
apogee height: 816 km
right ascension of ascending node: 108.4004°
argument of perigee: 275.0474°
revolutions per day: 14.24985691
mean anomaly at epoch: 84.9507°
orbit number at epoch: 77515

The dashed part of the orbit path shows where the satellite is in the earth's shadow,  

DLR